DW8749 Weather Reports


Display with metric or nautical units.
time (UTC)temp
F
wind
direction
speed
MPH
gust
MPH
rain 1hr
in
rain 24hr
in
rain mn
in
humidity
%
barometer
mb
20260505051009 64 51 10.0 25.0 0.00 0.00 0.00 38 1004.3
20260505050507 64 69 12.0 24.0 0.00 0.00 0.00 38 1004.3
20260505041523 67 70 16.0 24.0 0.00 0.00 0.00 40 1003.3
20260505041009 67 71 12.0 24.0 0.00 0.00 0.00 40 1003.3
20260505040512 67 51 12.0 20.0 0.00 0.00 0.00 41 1003.3
20260505040025 67 38 13.0 20.0 0.00 0.00 0.00 42 1003.3
20260505035515 67 54 13.0 27.0 0.00 0.00 0.00 42 1003.2
20260505035010 68 44 13.0 27.0 0.00 0.00 0.00 43 1003.3
20260505034528 68 59 15.0 24.0 0.00 0.00 0.00 44 1003.2
20260505034006 68 41 13.0 24.0 0.00 0.00 0.00 44 1003.3
20260505033505 69 42 13.0 24.0 0.00 0.00 0.00 43 1003.3
20260505033016 69 10 16.0 28.0 0.00 0.00 0.00 42 1003.1
20260505032508 70 50 16.0 28.0 0.00 0.00 0.00 41 1002.9
20260505032006 70 38 16.0 29.0 0.00 0.00 0.00 40 1002.9
20260505031528 71 54 13.0 29.0 0.00 0.00 0.00 38 1003.1
20260505031016 71 24 15.0 23.0 0.00 0.00 0.00 38 1003.1
20260505030511 72 55 13.0 21.0 0.00 0.00 0.00 38 1003.0
20260505030025 72 360 8.0 15.0 0.00 0.00 0.00 39 1002.8
20260505025508 72 36 6.0 11.0 0.00 0.00 0.00 41 1002.7
20260505025009 72 48 5.0 10.0 0.00 0.00 0.00 41 1002.4
20260505024510 72 31 5.0 12.0 0.00 0.00 0.00 41 1002.4
20260505024003 72 31 6.0 12.0 0.00 0.00 0.00 41 1002.4
20260505023507 72 18 4.0 10.0 0.00 0.00 0.00 41 1002.2
20260505023021 72 56 3.0 9.0 0.00 0.00 0.00 41 1002.2
20260505022507 72 98 2.0 13.0 0.00 0.00 0.00 41 1002.2
20260505022007 72 53 6.0 13.0 0.00 0.00 0.00 42 1002.1
20260505021527 72 75 4.0 9.0 0.00 0.00 0.00 42 1002.0
20260505021009 72 63 1.0 6.0 0.00 0.00 0.00 43 1002.1
20260505020507 73 103 0.0 5.0 0.00 0.00 0.00 45 1002.0
20260505020033 73 152 2.0 8.0 0.00 0.00 0.00 41 1002.0
20260505015511 74 86 1.0 8.0 0.00 0.00 0.00 40 1001.9
20260505015009 74 82 2.0 6.0 0.00 0.00 0.00 39 1001.7
20260505014514 74 69 1.0 9.0 0.00 0.00 0.00 40 1001.8
20260505014007 74 111 1.0 12.0 0.00 0.00 0.00 40 1001.8
20260505013507 74 144 5.0 16.0 0.00 0.00 0.00 42 1001.9
20260505013028 74 141 9.0 23.0 0.00 0.00 0.00 40 1001.7
20260505012508 76 159 13.0 22.0 0.00 0.00 0.00 41 1001.8
20260505012007 80 180 8.0 13.0 0.00 0.00 0.00 33 1001.7
20260505011534 80 205 2.0 5.0 0.00 0.00 0.00 27 1001.5
20260505011009 80 63 2.0 5.0 0.00 0.00 0.00 26 1001.3
20260505010511 81 337 3.0 5.0 0.00 0.00 0.00 26 1001.2
20260505010045 81 288 2.0 8.0 0.00 0.00 0.00 25 1001.2
20260505005509 81 305 1.0 18.0 0.00 0.00 0.00 24 1001.2
20260505005007 81 321 5.0 20.0 0.00 0.00 0.00 24 1001.1
20260505004517 81 324 9.0 23.0 0.00 0.00 0.00 25 1001.0
20260505004009 81 336 11.0 23.0 0.00 0.00 0.00 25 1000.9
20260505003507 81 322 9.0 18.0 0.00 0.00 0.00 25 1001.1
20260505003022 81 138 0.0 5.0 0.00 0.00 0.00 24 1001.0
20260505002511 81 100 2.0 6.0 0.00 0.00 0.00 24 1000.9
20260505002012 82 150 2.0 6.0 0.00 0.00 0.00 24 1000.9
20260505001526 82 139 3.0 9.0 0.00 0.00 0.00 24 1000.8
20260505001009 82 134 1.0 9.0 0.00 0.00 0.00 24 1000.8
20260505000509 82 99 2.0 8.0 0.00 0.00 0.00 24 1000.6
20260505000023 82 148 2.0 8.0 0.00 0.00 0.00 25 1000.6
20260504235507 82 109 2.0 9.0 0.00 0.00 0.00 25 1000.8
20260504235007 83 133 5.0 12.0 0.00 0.00 0.00 24 1000.7
20260504234520 83 134 3.0 12.0 0.00 0.00 0.00 25 1000.8
20260504234007 83 134 4.0 11.0 0.00 0.00 0.00 24 1000.8
20260504233503 83 94 6.0 11.0 0.00 0.00 0.00 24 1000.8
20260504233003 83 138 6.0 11.0 0.00 0.00 0.00 24 1000.8
20260504232503 83 141 5.0 10.0 0.00 0.00 0.00 25 1000.8
20260504232008 83 166 5.0 12.0 0.00 0.00 0.00 24 1000.8
20260504231507 83 110 7.0 12.0 0.00 0.00 0.00 24 1000.8
20260504231004 84 127 8.0 11.0 0.00 0.00 0.00 24 1000.8
20260504230508 84 146 4.0 11.0 0.00 0.00 0.00 24 1000.8
20260504230020 84 138 7.0 11.0 0.00 0.00 0.00 24 1000.9
20260504225505 84 106 3.0 11.0 0.00 0.00 0.00 24 1000.8
20260504225006 84 130 3.0 10.0 0.00 0.00 0.00 25 1000.8
20260504224524 85 137 6.0 10.0 0.00 0.00 0.00 24 1000.8
20260504224003 85 136 5.0 11.0 0.00 0.00 0.00 24 1000.9
20260504223503 85 135 7.0 11.0 0.00 0.00 0.00 24 1001.0
20260504223011 85 132 2.0 9.0 0.00 0.00 0.00 21 1000.9
20260504222504 86 153 3.0 10.0 0.00 0.00 0.00 20 1000.8
20260504222003 86 40 4.0 10.0 0.00 0.00 0.00 19 1000.7
20260504221520 86 43 0.0 4.0 0.00 0.00 0.00 20 1000.7
20260504221006 86 67 2.0 6.0 0.00 0.00 0.00 19 1000.8
20260504220509 86 55 2.0 10.0 0.00 0.00 0.00 20 1000.8
20260504220018 86 57 3.0 10.0 0.00 0.00 0.00 19 1000.7
20260504215512 86 103 2.0 10.0 0.00 0.00 0.00 19 1000.8
20260504215011 86 90 4.0 10.0 0.00 0.00 0.00 20 1000.8
20260504214505 86 76 3.0 15.0 0.00 0.00 0.00 20 1000.9
20260504214002 86 143 4.0 15.0 0.00 0.00 0.00 20 1000.9
20260504213503 86 80 3.0 9.0 0.00 0.00 0.00 21 1000.9
20260504213006 85 113 3.0 9.0 0.00 0.00 0.00 22 1001.1
20260504212504 85 100 3.0 9.0 0.00 0.00 0.00 20 1001.2
20260504212009 85 109 2.0 9.0 0.00 0.00 0.00 20 1001.3
20260504211513 85 60 3.0 8.0 0.00 0.00 0.00 21 1001.3
20260504211007 85 77 1.0 8.0 0.00 0.00 0.00 21 1001.4
20260504210509 85 134 4.0 10.0 0.00 0.00 0.00 19 1001.4
20260504210023 86 134 4.0 14.0 0.00 0.00 0.00 19 1001.5
20260504205507 86 61 4.0 14.0 0.00 0.00 0.00 19 1001.6
20260504205008 87 118 3.0 12.0 0.00 0.00 0.00 21 1001.6
20260504204503 87 126 6.0 12.0 0.00 0.00 0.00 20 1001.7
20260504204005 87 134 3.0 12.0 0.00 0.00 0.00 19 1001.7
20260504203506 87 118 3.0 12.0 0.00 0.00 0.00 20 1001.7
20260504203012 87 84 4.0 12.0 0.00 0.00 0.00 21 1001.9
20260504202506 86 37 4.0 15.0 0.00 0.00 0.00 19 1002.0
20260504202007 86 92 1.0 15.0 0.00 0.00 0.00 20 1002.2
20260504201516 87 146 9.0 13.0 0.00 0.00 0.00 19 1002.3
20260504201008 86 76 1.0 8.0 0.00 0.00 0.00 20 1002.2
20260504200511 86 37 3.0 9.0 0.00 0.00 0.00 18 1002.4
20260504200023 86 105 3.0 10.0 0.00 0.00 0.00 22 1002.4
20260504195507 86 128 5.0 10.0 0.00 0.00 0.00 20 1002.5
20260504195004 86 49 2.0 11.0 0.00 0.00 0.00 22 1002.4
20260504194507 86 121 4.0 9.0 0.00 0.00 0.00 20 1002.5
20260504194006 86 66 4.0 9.0 0.00 0.00 0.00 22 1002.7
20260504193506 86 57 3.0 10.0 0.00 0.00 0.00 21 1002.7
20260504193014 86 100 4.0 11.0 0.00 0.00 0.00 20 1002.9
20260504192506 86 80 4.0 11.0 0.00 0.00 0.00 22 1002.9
20260504192007 86 65 5.0 11.0 0.00 0.00 0.00 20 1003.1
20260504191530 86 86 2.0 11.0 0.00 0.00 0.00 23 1003.1
20260504191008 85 36 1.0 6.0 0.00 0.00 0.00 22 1003.1
20260504190507 85 89 2.0 11.0 0.00 0.00 0.00 24 1003.1
20260504190026 85 133 2.0 15.0 0.00 0.00 0.00 21 1003.3
20260504185503 85 76 4.0 15.0 0.00 0.00 0.00 21 1003.4
20260504185004 85 347 6.0 11.0 0.00 0.00 0.00 20 1003.3
20260504184514 85 30 6.0 11.0 0.00 0.00 0.00 22 1003.4
20260504184004 85 53 5.0 12.0 0.00 0.00 0.00 22 1003.4
20260504183507 85 51 6.0 12.0 0.00 0.00 0.00 21 1003.4
20260504183016 85 73 4.0 12.0 0.00 0.00 0.00 23 1003.4
20260504182508 85 65 5.0 12.0 0.00 0.00 0.00 22 1003.5
20260504182011 85 67 6.0 16.0 0.00 0.00 0.00 22 1003.5
20260504181524 85 58 8.0 17.0 0.00 0.00 0.00 21 1003.5
20260504181008 85 54 7.0 17.0 0.00 0.00 0.00 22 1003.5
20260504180510 85 47 6.0 15.0 0.00 0.00 0.00 23 1003.6
20260504180028 84 43 7.0 16.0 0.00 0.00 0.00 24 1003.7
20260504175504 84 50 9.0 16.0 0.00 0.00 0.00 24 1003.9
20260504175007 84 43 7.0 12.0 0.00 0.00 0.00 24 1003.9
20260504174514 84 65 5.0 14.0 0.00 0.00 0.00 25 1003.9
20260504174004 84 43 7.0 14.0 0.00 0.00 0.00 23 1004.0
20260504173507 84 46 7.0 13.0 0.00 0.00 0.00 25 1004.0
20260504173019 83 57 4.0 13.0 0.00 0.00 0.00 28 1004.1
20260504172508 83 67 6.0 9.0 0.00 0.00 0.00 27 1004.1
20260504172010 82 76 3.0 9.0 0.00 0.00 0.00 32 1004.1
20260504171531 82 35 5.0 10.0 0.00 0.00 0.00 29 1004.2
20260504171009 82 28 5.0 10.0 0.00 0.00 0.00 28 1004.2
20260504170517 82 69 5.0 9.0 0.00 0.00 0.00 30 1004.3
20260504151009 74 5 3.0 9.0 0.00 0.00 0.00 33 1003.8
20260504150508 73 287 7.0 10.0 0.00 0.00 0.00 34 1004.0
20260504141008 64 246 3.0 7.0 0.00 0.00 0.00 43 1003.8
20260504140502 63 279 1.0 7.0 0.00 0.00 0.00 43 1003.8
20260504130511 58 255 3.0 8.0 0.00 0.00 0.00 52 1003.7
20260504110506 58 284 3.0 6.0 0.00 0.00 0.00 52 1003.4
20260504100505 61 182 4.0 12.0 0.00 0.00 0.00 47 1003.4
20260504082007 64 215 6.0 12.0 0.00 0.00 0.00 43 1004.0
20260504081517 64 210 4.0 10.0 0.00 0.00 0.00 43 1004.1
20260504081009 64 271 3.0 10.0 0.00 0.00 0.00 42 1004.1
20260504080507 64 195 3.0 10.0 0.00 0.00 0.00 42 1004.2